Lid_Strength_Index
18 20 22 21 20 19 19 20 21 19 16 16 16 16 12 9 9 9 9 10 9 8 8 8 7 7 7 7 7 7 7 8 8 9 10 11 11 10 10 9 8 8 8 7
21 22 19 18 17 18 19 20 20 18 14 14 14 14 11 10 10 10 10 11 10 10 9 8 7 7 8 8 8 8 8 8 8 8 9 10 10 11 10 10 10 9 8 8
23 20 17 18 19 19 19 19 19 18 16 14 14 16 14 11 10 9 10 10 10 10 8 8 8 8 9 9 9 8 8 8 8 8 8 9 9 10 11 11 11 10 9 8
22 18 18 18 19 18 21 17 17 17 17 22 14 23 16 12 11 10 10 9 8 8 8 9 8 9 10 9 10 9 9 8 8 8 8 9 10 11 11 11 11 10 9 9
22 20 19 20 18 16 18 16 16 16 17 22 18 22 17 13 13 11 10 10 9 9 9 10 10 9 10 10 11 10 10 10 9 9 8 9 9 9 9 10 11 11 10 10
19 16 19 18 18 17 16 19 18 21 27 29 20 22 19 14 12 11 10 9 9 9 10 10 10 10 11 11 12 12 12 11 11 10 10 10 10 10 10 10 11 11 11 10
22 20 17 17 22 21 22 24 25 31 31 29 16 19 18 12 11 12 13 11 11 10 11 12 12 12 12 13 13 13 13 13 12 12 12 11 11 11 11 11 11 11 12 11
33 32 20 17 19 25 21 22 23 25 27 23 16 26 17 11 10 10 11 11 10 12 12 13 13 13 13 13 13 14 14 14 13 13 13 12 12 12 11 11 11 11 11 11
31 29 18 17 16 19 19 26 16 18 31 28 22 17 13 10 12 12 12 11 12 13 13 14 14 14 14 15 14 14 15 14 14 13 13 13 13 13 13 12 11 11 11 11
27 29 20 17 17 16 17 15 23 23 26 32 26 23 21 17 17 14 14 13 13 14 14 15 15 15 15 15 15 15 15 15 15 14 14 13 13 13 13 12 12 11 11 11
30 29 26 22 29 27 22 22 18 20 20 23 30 27 21 22 22 18 16 12 14 16 17 17 17 16 17 17 17 16 16 16 16 15 15 14 14 13 13 13 13 12 11 11
22 25 32 27 21 21 20 21 16 22 26 26 28 23 24 23 19 16 13 12 13 15 18 19 18 18 18 18 18 18 18 17 16 16 16 15 14 14 14 14 13 12 11 10
24 25 29 29 25 24 27 23 20 23 23 27 28 26 20 14 14 12 13 13 14 15 19 18 17 18 19 18 18 18 18 17 17 18 17 16 16 15 15 14 13 12 12 11
18 29 27 28 25 29 28 24 24 25 29 28 25 22 17 16 15 14 13 14 17 19 20 18 18 18 18 18 18 19 18 17 18 18 17 17 16 15 15 14 13 13 12 12
24 29 31 25 21 30 25 22 22 26 23 22 23 22 18 17 15 15 14 19 19 19 18 18 19 19 19 19 19 18 18 18 18 18 17 17 16 15 15 15 14 13 12 11
26 27 31 25 30 31 29 22 23 20 20 21 19 20 17 18 15 14 15 19 20 20 19 19 19 19 19 19 19 19 19 18 18 18 18 15 13 12 13 14 14 13 12 11
24 26 29 30 28 29 26 23 26 25 25 20 22 19 19 16 15 15 17 17 20 21 20 20 19 19 19 19 19 20 19 18 18 19 16 14 12 9 9 12 13 13 12 11
29 26 26 29 28 32 20 23 23 23 22 22 20 17 18 17 17 15 20 20 19 20 19 19 19 19 19 19 19 19 19 18 19 19 16 14 12 9 10 11 12 12 11 10
22 25 26 29 36 24 19 17 17 20 20 18 18 17 20 21 20 17 20 22 20 21 20 19 19 19 19 19 20 20 19 19 19 19 17 14 12 10 8 9 9 9 9 8
24 26 23 30 26 32 22 17 16 17 23 15 22 22 24 15 17 18 16 18 18 20 19 19 18 18 18 20 20 20 20 20 21 19 17 15 12 11 10 8 6 6 6 6
32 33 25 28 22 23 19 13 11 22 21 21 23 21 19 17 17 13 14 15 21 21 18 18 19 19 19 20 20 21 20 21 21 18 17 16 14 12 11 10 9 7 7 7
28 31 30 28 29 26 14 11 14 15 15 18 21 21 20 19 17 17 16 16 16 19 17 18 19 19 19 19 20 21 22 21 20 18 18 17 16 14 11 11 10 10 9 9
26 22 25 21 21 16 15 13 14 16 14 15 16 16 15 14 14 14 13 13 14 16 16 17 19 19 20 20 20 22 22 22 21 19 19 18 17 16 14 12 11 11 10 10
19 18 20 20 15 14 14 13 12 13 11 10 12 13 13 14 14 15 14 13 13 15 17 17 18 19 20 20 20 22 22 22 21 20 19 19 18 17 17 15 13 12 13 13
18 17 18 18 13 13 12 10 10 10 12 12 13 14 15 15 15 15 14 14 13 14 16 18 19 19 20 21 21 22 22 22 20 20 20 20 19 18 18 16 15 15 13 12
16 17 19 19 13 13 11 10 10 12 12 13 14 15 15 15 15 15 16 15 15 15 16 18 19 20 21 22 22 23 23 23 22 20 21 21 21 20 19 19 17 13 13 12